QPF
0.00 0.00 0.01 0.00 0.00 0.00 0.00 0.00 0.01 0.01 0.02 0.01 0.00 0.00 0.00 0.00 0.00 0.04 0.03 0.01 0.00 0.00 0.00 0.00 0.00 0.00 0.00 0.00 0.00 0.00 0.00 0.00 0.02 0.03 0.04 0.04 0.05 0.03 0.02 0.04 0.02 0.01 0.02
0.00 0.00 0.00 0.00 0.00 0.00 0.00 0.00 0.00 0.00 0.01 0.04 0.02 0.00 0.00 0.01 0.02 0.03 0.01 0.00 0.00 0.00 0.00 0.00 0.00 0.00 0.00 0.00 0.00 0.00 0.00 0.00 0.00 0.01 0.01 0.00 0.00 0.01 0.02 0.06 0.03 0.00 0.00
0.00 0.00 0.00 0.00 0.00 0.00 0.00 0.01 0.02 0.01 0.01 0.01 0.01 0.01 0.02 0.02 0.02 0.01 0.01 0.02 0.04 0.00 0.00 0.00 0.00 0.00 0.00 0.00 0.00 0.00 0.00 0.00 0.01 0.04 0.03 0.00 0.00 0.00 0.03 0.03 0.02 0.01 0.01
0.00 0.00 0.00 0.00 0.00 0.00 0.00 0.00 0.00 0.00 0.00 0.00 0.00 0.01 0.03 0.02 0.03 0.05 0.10 0.09 0.03 0.01 0.00 0.00 0.00 0.00 0.00 0.00 0.00 0.00 0.01 0.01 0.02 0.07 0.03 0.00 0.00 0.00 0.00 0.00 0.00 0.01 0.03
0.00 0.00 0.00 0.00 0.00 0.00 0.00 0.00 0.00 0.00 0.00 0.00 0.00 0.00 0.00 0.04 0.03 0.02 0.03 0.05 0.01 0.06 0.01 0.00 0.04 0.00 0.00 0.00 0.00 0.02 0.01 0.00 0.00 0.01 0.00 0.00 0.00 0.00 0.01 0.02 0.00 0.01 0.02
0.00 0.00 0.00 0.00 0.00 0.00 0.00 0.00 0.00 0.00 0.00 0.00 0.00 0.00 0.01 0.00 0.01 0.01 0.01 0.01 0.01 0.00 0.00 0.00 0.02 0.02 0.01 0.00 0.00 0.00 0.00 0.00 0.00 0.00 0.00 0.01 0.01 0.00 0.03 0.04 0.00 0.00 0.00
0.00 0.00 0.00 0.00 0.00 0.00 0.00 0.00 0.00 0.00 0.00 0.00 0.00 0.00 0.00 0.00 0.00 0.02 0.01 0.02 0.01 0.00 0.04 0.01 0.00 0.00 0.00 0.02 0.00 0.00 0.00 0.00 0.00 0.00 0.00 0.00 0.00 0.00 0.00 0.00 0.00 0.00 0.00
0.00 0.00 0.00 0.00 0.00 0.00 0.00 0.00 0.00 0.00 0.00 0.00 0.00 0.00 0.00 0.00 0.00 0.02 0.01 0.02 0.04 0.03 0.03 0.02 0.03 0.04 0.00 0.00 0.00 0.00 0.00 0.00 0.00 0.00 0.00 0.00 0.00 0.00 0.00 0.00 0.00 0.00 0.00
0.00 0.00 0.00 0.00 0.00 0.00 0.03 0.04 0.01 0.00 0.00 0.00 0.00 0.00 0.00 0.00 0.00 0.00 0.03 0.02 0.01 0.03 0.05 0.03 0.02 0.03 0.00 0.00 0.00 0.00 0.00 0.00 0.00 0.00 0.00 0.00 0.00 0.00 0.00 0.00 0.00 0.00 0.00
0.00 0.00 0.00 0.00 0.00 0.00 0.01 0.07 0.02 0.00 0.01 0.01 0.00 0.00 0.00 0.00 0.00 0.00 0.02 0.04 0.02 0.02 0.01 0.04 0.02 0.00 0.00 0.00 0.00 0.00 0.00 0.00 0.00 0.00 0.00 0.00 0.00 0.00 0.00 0.00 0.00 0.00 0.00
0.00 0.00 0.00 0.00 0.00 0.00 0.04 0.02 0.01 0.06 0.01 0.00 0.00 0.01 0.01 0.01 0.02 0.01 0.05 0.06 0.00 0.01 0.02 0.00 0.00 0.00 0.00 0.00 0.00 0.00 0.00 0.00 0.01 0.00 0.00 0.00 0.00 0.00 0.00 0.00 0.00 0.00 0.00
0.00 0.00 0.00 0.00 0.00 0.00 0.00 0.00 0.01 0.03 0.04 0.02 0.00 0.00 0.00 0.00 0.01 0.01 0.00 0.00 0.00 0.00 0.01 0.00 0.00 0.00 0.00 0.00 0.00 0.00 0.00 0.00 0.00 0.00 0.00 0.00 0.00 0.00 0.00 0.00 0.00 0.00 0.00
0.00 0.00 0.00 0.00 0.00 0.00 0.00 0.00 0.00 0.00 0.01 0.01 0.00 0.00 0.00 0.00 0.01 0.02 0.02 0.01 0.00 0.00 0.00 0.02 0.00 0.00 0.00 0.00 0.00 0.00 0.00 0.00 0.00 0.00 0.00 0.00 0.00 0.00 0.00 0.00 0.01 0.04 0.03
0.00 0.00 0.00 0.00 0.00 0.00 0.00 0.00 0.00 0.00 0.00 0.00 0.00 0.00 0.03 0.07 0.06 0.06 0.01 0.01 0.00 0.00 0.00 0.00 0.00 0.00 0.00 0.00 0.00 0.00 0.00 0.00 0.00 0.00 0.00 0.00 0.00 0.00 0.00 0.00 0.01 0.04 0.09
0.00 0.00 0.00 0.00 0.00 0.00 0.00 0.00 0.00 0.00 0.00 0.00 0.00 0.01 0.04 0.12 0.16 0.04 0.00 0.00 0.00 0.01 0.01 0.02 0.02 0.05 0.07 0.02 0.01 0.00 0.00 0.00 0.00 0.00 0.00 0.00 0.00 0.00 0.00 0.01 0.06 0.01 0.03
0.00 0.00 0.00 0.00 0.00 0.00 0.00 0.00 0.00 0.00 0.01 0.01 0.02 0.07 0.12 0.03 0.02 0.00 0.00 0.00 0.01 0.01 0.01 0.03 0.04 0.07 0.08 0.04 0.04 0.00 0.00 0.00 0.00 0.00 0.00 0.00 0.00 0.00 0.00 0.00 0.03 0.04 0.00
0.00 0.01 0.00 0.00 0.00 0.00 0.00 0.00 0.00 0.00 0.00 0.00 0.00 0.00 0.00 0.00 0.00 0.00 0.00 0.00 0.00 0.00 0.00 0.03 0.03 0.04 0.02 0.02 0.01 0.00 0.00 0.00 0.00 0.00 0.00 0.00 0.00 0.00 0.00 0.00 0.00 0.00 0.00
0.00 0.00 0.00 0.00 0.00 0.00 0.00 0.00 0.00 0.01 0.01 0.00 0.03 0.03 0.03 0.01 0.00 0.01 0.00 0.00 0.00 0.00 0.00 0.02 0.08 0.16 0.06 0.08 0.01 0.02 0.00 0.00 0.00 0.00 0.00 0.00 0.00 0.00 0.00 0.00 0.00 0.00 0.00
0.00 0.00 0.00 0.00 0.00 0.00 0.00 0.00 0.00 0.00 0.00 0.00 0.01 0.01 0.02 0.02 0.01 0.03 0.01 0.01 0.00 0.00 0.01 0.10 0.14 0.15 0.04 0.01 0.01 0.00 0.00 0.01 0.00 0.00 0.00 0.00 0.00 0.00 0.00 0.00 0.00 0.00 0.00
0.00 0.00 0.00 0.00 0.00 0.00 0.00 0.00 0.01 0.00 0.00 0.00 0.00 0.00 0.00 0.00 0.00 0.02 0.00 0.00 0.00 0.03 0.03 0.07 0.03 0.02 0.01 0.02 0.01 0.00 0.00 0.00 0.00 0.00 0.01 0.01 0.00 0.00 0.00 0.00 0.00 0.00 0.00
0.00 0.00 0.00 0.00 0.00 0.00 0.00 0.01 0.01 0.01 0.00 0.00 0.00 0.00 0.00 0.00 0.00 0.02 0.00 0.00 0.00 0.01 0.01 0.00 0.00 0.01 0.01 0.01 0.05 0.01 0.00 0.00 0.00 0.00 0.00 0.00 0.00 0.00 0.00 0.00 0.00 0.00 0.00
0.00 0.00 0.00 0.00 0.00 0.00 0.00 0.00 0.00 0.00 0.00 0.00 0.00 0.00 0.00 0.00 0.00 0.00 0.01 0.00 0.00 0.00 0.00 0.02 0.02 0.00 0.00 0.00 0.01 0.01 0.01 0.00 0.00 0.00 0.00 0.00 0.00 0.00 0.00 0.00 0.00 0.00 0.00
0.00 0.00 0.00 0.00 0.00 0.00 0.00 0.00 0.00 0.00 0.00 0.00 0.00 0.00 0.00 0.00 0.00 0.00 0.00 0.03 0.02 0.01 0.00 0.02 0.02 0.01 0.00 0.00 0.00 0.00 0.01 0.05 0.01 0.00 0.00 0.00 0.00 0.00 0.00 0.00 0.00 0.00 0.00
0.00 0.00 0.00 0.00 0.00 0.00 0.00 0.00 0.00 0.06 0.07 0.04 0.00 0.00 0.00 0.00 0.00 0.00 0.00 0.05 0.08 0.06 0.02 0.03 0.01 0.04 0.12 0.00 0.00 0.00 0.00 0.00 0.00 0.00 0.00 0.00 0.00 0.02 0.00 0.00 0.00 0.00 0.00
0.00 0.00 0.00 0.00 0.00 0.00 0.00 0.04 0.00 0.00 0.00 0.01 0.00 0.03 0.01 0.00 0.00 0.00 0.00 0.05 0.11 0.06 0.02 0.06 0.13 0.23 0.21 0.02 0.00 0.06 0.09 0.01 0.05 0.02 0.00 0.00 0.01 0.03 0.01 0.00 0.00 0.00 0.00
0.00 0.00 0.00 0.00 0.00 0.00 0.00 0.00 0.00 0.02 0.00 0.00 0.03 0.08 0.00 0.00 0.00 0.00 0.01 0.04 0.02 0.04 0.11 0.14 0.05 0.06 0.04 0.10 0.14 0.16 0.09 0.03 0.02 0.07 0.04 0.00 0.00 0.00 0.00 0.00 0.00 0.00 0.00
MSLP
1011.78 1013.20 1013.99 1014.18 1014.31 1014.42 1014.48 1014.56 1014.68 1014.75 1014.74 1014.86 1014.97 1015.13 1015.29 1015.33 1015.30 1015.41 1015.46 1015.42 1015.36 1015.43 1015.50 1015.69 1015.81 1015.84 1015.93 1016.07 1016.26 1016.35 1016.45 1016.54 1016.81 1016.92 1017.06 1017.19 1017.26 1017.20 1017.16 1017.20 1017.01 1017.19 1017.82
1011.64 1013.08 1014.14 1014.37 1014.58 1014.73 1014.77 1014.94 1014.99 1014.99 1015.19 1015.19 1015.18 1015.33 1015.48 1015.55 1015.58 1015.67 1015.66 1015.67 1015.65 1015.75 1015.85 1015.95 1016.10 1016.24 1016.35 1016.41 1016.57 1016.65 1016.72 1016.82 1016.79 1016.82 1017.01 1017.28 1017.39 1017.28 1017.44 1017.73 1017.28 1017.81 1017.92
1011.68 1013.22 1013.96 1014.54 1014.86 1015.02 1014.99 1015.18 1015.24 1015.19 1015.36 1015.47 1015.58 1015.66 1015.70 1015.82 1015.79 1015.82 1015.89 1015.98 1016.00 1016.07 1016.10 1016.21 1016.38 1016.58 1016.68 1016.76 1016.87 1016.92 1016.89 1016.77 1016.93 1016.72 1016.31 1016.41 1017.32 1017.87 1018.03 1017.86 1018.01 1018.06 1018.15
1011.63 1012.64 1013.76 1014.72 1015.05 1015.25 1015.32 1015.41 1015.51 1015.54 1015.68 1015.77 1015.89 1015.93 1015.86 1015.99 1016.10 1016.08 1016.22 1016.20 1016.26 1016.37 1016.44 1016.46 1016.66 1016.75 1016.83 1016.94 1017.05 1017.10 1017.10 1017.04 1016.93 1016.91 1016.53 1016.17 1017.16 1018.12 1018.14 1018.22 1018.29 1018.44 1018.48
1011.61 1012.24 1014.22 1014.94 1015.27 1015.46 1015.62 1015.69 1015.81 1015.91 1015.95 1016.03 1016.04 1016.05 1016.06 1016.21 1016.23 1016.31 1016.35 1016.38 1016.48 1016.59 1016.72 1016.73 1016.83 1016.91 1017.06 1017.21 1017.28 1017.34 1017.29 1017.06 1016.77 1016.43 1015.91 1016.41 1016.93 1018.22 1018.43 1018.47 1018.62 1018.71 1018.55
1011.18 1012.34 1014.80 1015.19 1015.44 1015.66 1015.84 1015.93 1016.04 1016.14 1016.19 1016.25 1016.26 1016.23 1016.24 1016.31 1016.38 1016.43 1016.52 1016.65 1016.74 1016.80 1016.86 1016.96 1017.12 1017.11 1017.23 1017.37 1017.51 1017.63 1017.57 1017.19 1016.81 1015.64 1016.11 1016.80 1017.28 1018.37 1018.75 1018.74 1018.70 1018.85 1019.01
1011.16 1013.27 1014.57 1015.36 1015.65 1015.85 1015.98 1016.11 1016.22 1016.32 1016.37 1016.43 1016.47 1016.45 1016.42 1016.49 1016.57 1016.64 1016.72 1016.76 1016.90 1016.96 1017.02 1017.13 1017.27 1017.37 1017.45 1017.58 1017.71 1017.79 1017.66 1017.39 1016.74 1015.90 1016.24 1016.31 1017.75 1018.48 1018.67 1018.79 1018.89 1019.11 1019.22
1011.13 1013.11 1014.64 1015.52 1015.77 1015.97 1016.11 1016.26 1016.38 1016.52 1016.61 1016.61 1016.66 1016.70 1016.66 1016.64 1016.72 1016.85 1016.92 1017.02 1017.07 1017.12 1017.38 1017.29 1017.38 1017.56 1017.68 1017.73 1017.86 1017.90 1017.82 1017.54 1016.56 1016.30 1016.12 1016.52 1018.13 1018.61 1018.79 1018.97 1019.05 1019.22 1019.37
1011.37 1012.71 1014.22 1014.80 1015.59 1016.02 1016.14 1016.29 1016.46 1016.61 1016.75 1016.82 1016.81 1016.83 1016.82 1016.81 1016.83 1016.95 1017.16 1017.14 1017.20 1017.38 1017.46 1017.56 1017.75 1017.74 1017.77 1017.87 1017.93 1018.00 1017.86 1017.58 1016.97 1016.34 1016.29 1016.61 1018.20 1018.65 1018.96 1019.20 1019.27 1019.31 1019.46
1011.82 1012.64 1013.25 1014.11 1014.82 1014.93 1015.36 1016.12 1016.42 1016.64 1016.84 1016.94 1016.97 1016.93 1016.79 1016.83 1016.72 1016.80 1017.19 1017.27 1017.30 1017.37 1017.47 1017.67 1017.78 1017.85 1017.88 1017.91 1017.93 1017.98 1017.89 1017.52 1016.73 1016.24 1016.16 1017.13 1018.00 1018.59 1018.84 1019.15 1019.34 1019.49 1019.55
1012.50 1012.91 1012.37 1012.91 1013.95 1014.43 1015.49 1015.63 1016.28 1016.63 1016.72 1016.95 1017.00 1016.89 1016.69 1016.19 1016.46 1016.28 1016.87 1017.24 1017.31 1017.33 1017.44 1017.55 1017.72 1017.82 1017.85 1017.89 1017.84 1017.86 1017.83 1016.75 1015.76 1015.69 1015.74 1017.19 1017.74 1018.42 1018.72 1018.90 1019.18 1019.41 1019.56
1012.29 1013.03 1012.42 1012.51 1013.26 1014.01 1014.15 1015.11 1015.46 1015.71 1016.41 1016.89 1016.82 1016.73 1016.42 1016.00 1016.34 1016.10 1016.50 1016.80 1017.02 1017.18 1017.29 1017.38 1017.50 1017.64 1017.68 1016.60 1017.00 1017.48 1017.12 1016.33 1015.41 1015.61 1015.76 1016.81 1017.58 1018.27 1018.49 1018.66 1018.88 1019.22 1019.47
1011.82 1012.59 1012.90 1013.27 1013.48 1013.56 1014.21 1014.39 1014.69 1015.72 1016.06 1016.52 1016.72 1016.38 1016.20 1015.88 1015.84 1016.38 1016.56 1016.00 1016.17 1016.76 1016.25 1016.83 1016.96 1016.87 1016.28 1016.17 1016.83 1016.55 1015.90 1015.63 1015.42 1015.46 1016.00 1016.53 1017.30 1017.95 1018.29 1018.48 1018.60 1018.91 1019.13
1011.45 1012.08 1012.64 1013.45 1013.71 1013.78 1014.00 1014.29 1014.20 1014.48 1015.59 1015.94 1016.35 1016.36 1016.25 1015.77 1015.73 1016.35 1016.12 1016.11 1015.94 1016.08 1016.13 1016.27 1016.18 1016.37 1016.07 1016.16 1015.81 1015.56 1015.64 1015.41 1015.43 1015.41 1015.85 1016.21 1016.76 1017.40 1017.87 1018.10 1018.34 1018.62 1018.80
1011.23 1011.95 1012.61 1012.99 1014.00 1014.27 1014.61 1014.07 1014.13 1014.41 1015.24 1016.17 1016.32 1015.89 1016.03 1016.92 1016.89 1016.35 1016.26 1015.87 1015.89 1016.09 1016.19 1016.35 1016.40 1016.48 1016.62 1016.35 1016.40 1016.10 1015.65 1015.26 1015.41 1015.37 1015.70 1016.55 1016.55 1016.91 1017.42 1017.70 1017.93 1018.21 1018.38
1011.23 1011.79 1012.27 1013.20 1013.87 1014.28 1014.68 1014.87 1014.65 1014.34 1015.52 1016.11 1016.40 1016.56 1016.88 1016.92 1016.95 1017.12 1016.70 1015.78 1015.48 1015.79 1015.83 1015.72 1016.00 1016.10 1016.37 1016.12 1015.99 1016.03 1015.89 1015.52 1015.11 1015.29 1015.53 1016.06 1016.23 1016.45 1016.87 1017.25 1017.44 1017.66 1017.96
1011.03 1011.90 1012.16 1012.96 1013.46 1014.21 1014.55 1014.84 1014.69 1014.01 1014.84 1015.66 1016.09 1016.45 1016.61 1016.71 1016.70 1016.84 1016.94 1016.10 1015.41 1015.44 1015.94 1015.75 1015.80 1015.82 1015.81 1015.60 1015.63 1015.24 1015.44 1015.23 1014.49 1015.04 1015.15 1015.19 1015.63 1016.02 1016.12 1016.38 1016.74 1017.04 1017.28
1011.45 1011.59 1012.29 1012.53 1012.86 1013.70 1013.87 1014.31 1014.30 1014.39 1015.06 1015.03 1015.69 1016.20 1016.24 1016.36 1016.23 1016.36 1016.58 1016.10 1015.53 1016.15 1015.74 1015.31 1015.43 1015.75 1015.69 1015.63 1014.96 1015.18 1015.08 1014.41 1014.06 1014.05 1014.66 1014.86 1014.84 1014.88 1015.50 1015.76 1016.02 1016.32 1016.57
1010.83 1011.99 1012.26 1012.64 1012.71 1013.07 1013.86 1013.89 1013.95 1014.28 1014.15 1014.38 1015.33 1015.34 1015.42 1015.51 1015.49 1015.59 1015.49 1015.35 1015.74 1015.24 1015.80 1015.51 1015.65 1015.53 1015.78 1015.06 1015.13 1014.77 1014.35 1014.35 1013.98 1013.53 1013.39 1013.57 1013.52 1013.80 1014.22 1014.66 1015.21 1015.57 1015.72
1010.78 1011.82 1012.22 1012.45 1012.90 1013.36 1013.61 1014.13 1013.68 1014.05 1014.03 1013.91 1014.17 1013.74 1014.21 1014.22 1014.33 1014.76 1014.38 1014.23 1014.64 1014.61 1015.18 1015.25 1015.61 1015.46 1015.52 1015.00 1015.13 1014.49 1013.92 1013.81 1013.71 1013.32 1013.41 1013.46 1013.36 1013.21 1013.64 1013.84 1014.38 1014.76 1014.98
1009.98 1011.53 1012.04 1012.40 1013.10 1013.45 1013.66 1013.69 1013.83 1013.86 1013.99 1013.78 1013.74 1013.72 1013.91 1014.16 1014.34 1014.60 1014.11 1014.22 1014.22 1014.46 1014.96 1015.11 1014.91 1015.03 1014.46 1014.61 1014.82 1014.22 1013.22 1012.91 1012.74 1012.79 1012.81 1012.94 1013.06 1012.92 1012.97 1013.03 1013.61 1013.82 1013.90
1009.43 1010.90 1011.96 1012.33 1013.05 1013.52 1013.42 1013.28 1013.50 1013.46 1013.45 1013.66 1013.61 1013.58 1013.68 1013.92 1014.22 1014.35 1014.14 1013.80 1013.80 1014.34 1014.47 1014.56 1014.96 1014.41 1013.79 1013.38 1013.54 1013.41 1012.60 1012.93 1011.85 1012.15 1012.25 1012.32 1012.30 1012.15 1012.28 1012.30 1012.58 1012.94 1012.94
1009.21 1010.69 1011.66 1012.37 1012.92 1013.39 1013.23 1013.45 1013.61 1013.68 1013.60 1013.30 1013.12 1013.09 1013.28 1013.59 1013.69 1013.95 1014.07 1013.97 1013.93 1014.34 1013.99 1014.05 1014.39 1014.39 1013.64 1013.15 1013.11 1013.14 1012.65 1012.62 1012.12 1011.23 1011.46 1011.24 1011.24 1011.24 1011.26 1011.54 1011.46 1012.03 1012.36
1009.22 1010.27 1011.41 1012.27 1012.74 1013.10 1013.29 1012.88 1013.10 1013.12 1013.61 1013.79 1013.44 1013.03 1013.07 1013.25 1013.34 1013.39 1013.42 1013.53 1014.17 1014.06 1013.81 1013.96 1013.98 1014.04 1013.98 1013.58 1012.98 1012.51 1012.86 1012.89 1012.52 1011.89 1011.50 1010.27 1011.47 1012.10 1011.60 1011.02 1010.51 1010.91 1011.20
1009.49 1010.27 1011.46 1012.37 1012.79 1012.90 1013.16 1013.38 1013.11 1013.39 1013.04 1013.20 1013.25 1013.67 1013.49 1013.37 1013.26 1013.26 1013.33 1013.27 1013.94 1014.02 1013.42 1013.65 1013.76 1013.89 1014.38 1014.19 1013.68 1013.24 1013.28 1013.34 1013.48 1012.69 1011.44 1010.72 1012.46 1011.84 1011.43 1010.67 1010.38 1010.05 1010.28
1009.78 1010.51 1011.28 1012.42 1013.05 1013.32 1013.55 1013.65 1013.76 1013.64 1013.53 1013.38 1013.58 1013.81 1013.39 1012.84 1012.85 1013.10 1013.08 1013.33 1013.37 1013.35 1013.57 1013.68 1013.66 1013.67 1013.69 1013.76 1013.84 1013.63 1013.72 1013.68 1013.35 1013.08 1012.66 1011.77 1011.41 1011.27 1011.07 1011.26 1009.54 1009.37 1009.63
Thickness
5783 5772 5765 5761 5758 5757 5755 5754 5752 5752 5752 5752 5750 5747 5746 5746 5746 5746 5746 5747 5748 5748 5748 5747 5748 5748 5748 5747 5745 5746 5746 5745 5743 5741 5739 5739 5740 5740 5741 5739 5739 5736 5731
5789 5774 5765 5761 5758 5757 5756 5752 5752 5753 5750 5750 5750 5748 5747 5746 5746 5746 5746 5747 5748 5747 5747 5747 5747 5747 5746 5746 5745 5745 5744 5743 5743 5743 5741 5739 5739 5741 5739 5733 5737 5732 5732
5790 5775 5767 5763 5758 5756 5756 5753 5753 5753 5751 5749 5748 5748 5747 5746 5747 5747 5747 5746 5747 5747 5747 5747 5746 5745 5745 5744 5744 5744 5744 5744 5743 5744 5747 5747 5741 5736 5733 5735 5733 5732 5732
5791 5782 5771 5763 5760 5756 5756 5755 5753 5753 5751 5749 5747 5747 5748 5747 5746 5747 5746 5746 5746 5746 5746 5746 5745 5744 5744 5744 5743 5743 5742 5743 5744 5747 5750 5749 5741 5735 5735 5734 5733 5731 5731
5793 5787 5770 5763 5760 5757 5755 5754 5753 5751 5751 5750 5749 5749 5749 5747 5747 5747 5747 5747 5746 5745 5744 5745 5745 5745 5744 5743 5743 5743 5743 5746 5748 5752 5754 5749 5746 5737 5735 5734 5732 5730 5731
5798 5788 5768 5764 5761 5758 5756 5755 5754 5751 5751 5750 5749 5750 5750 5749 5748 5748 5748 5747 5746 5745 5745 5744 5744 5744 5745 5745 5744 5743 5743 5747 5751 5759 5756 5750 5746 5738 5734 5733 5733 5732 5730
5800 5782 5772 5765 5762 5760 5758 5756 5754 5753 5751 5750 5749 5749 5749 5748 5747 5748 5748 5747 5746 5746 5745 5745 5744 5744 5745 5745 5744 5744 5745 5748 5753 5759 5756 5755 5744 5739 5737 5735 5734 5732 5729
5800 5784 5772 5766 5763 5761 5759 5757 5755 5753 5751 5750 5750 5750 5749 5749 5748 5747 5747 5747 5747 5746 5744 5745 5745 5744 5745 5745 5744 5744 5745 5747 5754 5756 5758 5755 5743 5739 5737 5735 5734 5731 5730
5799 5788 5776 5771 5766 5762 5760 5759 5757 5754 5752 5751 5750 5750 5750 5750 5749 5748 5746 5747 5747 5746 5745 5744 5743 5744 5745 5745 5745 5744 5745 5748 5752 5757 5758 5756 5744 5739 5736 5734 5733 5732 5730
5796 5790 5785 5778 5773 5771 5768 5762 5759 5756 5753 5751 5751 5751 5753 5751 5752 5750 5747 5747 5748 5748 5747 5746 5744 5745 5746 5746 5747 5746 5747 5750 5756 5761 5761 5753 5747 5741 5737 5735 5733 5731 5729
5789 5788 5794 5790 5781 5777 5769 5767 5761 5757 5755 5752 5752 5753 5755 5758 5755 5756 5752 5749 5750 5750 5749 5748 5747 5747 5747 5747 5748 5747 5748 5756 5764 5769 5766 5755 5750 5743 5740 5737 5735 5732 5730
5787 5786 5795 5795 5788 5781 5780 5771 5767 5763 5757 5754 5755 5756 5758 5760 5758 5760 5757 5755 5754 5754 5753 5752 5751 5750 5749 5757 5755 5751 5754 5760 5769 5769 5767 5759 5752 5745 5743 5741 5738 5735 5733
5794 5791 5791 5789 5787 5786 5780 5778 5775 5766 5761 5757 5757 5760 5762 5763 5764 5760 5760 5763 5762 5759 5762 5758 5757 5758 5762 5763 5759 5761 5765 5767 5770 5769 5766 5762 5755 5748 5745 5743 5741 5739 5737
5797 5794 5793 5788 5787 5785 5783 5779 5778 5776 5768 5764 5761 5762 5764 5767 5767 5763 5765 5764 5765 5765 5765 5764 5764 5763 5765 5764 5767 5769 5768 5771 5771 5771 5768 5765 5760 5755 5750 5747 5744 5742 5740
5798 5796 5793 5793 5785 5782 5778 5782 5781 5777 5772 5764 5763 5766 5766 5761 5760 5764 5764 5767 5767 5766 5766 5765 5765 5764 5763 5765 5764 5767 5769 5772 5772 5772 5770 5763 5763 5760 5755 5752 5750 5747 5745
5799 5797 5797 5791 5786 5782 5779 5777 5778 5780 5771 5766 5763 5762 5761 5762 5761 5760 5762 5771 5774 5771 5770 5771 5769 5769 5767 5768 5771 5770 5770 5773 5775 5774 5772 5769 5767 5765 5761 5758 5755 5753 5749
5802 5797 5797 5792 5790 5784 5781 5778 5778 5784 5779 5771 5768 5766 5764 5765 5764 5763 5763 5771 5776 5775 5771 5772 5772 5772 5773 5775 5775 5778 5775 5775 5781 5778 5777 5776 5772 5770 5769 5766 5762 5759 5757
5799 5799 5795 5797 5795 5789 5789 5784 5785 5784 5778 5775 5769 5769 5767 5767 5768 5769 5769 5773 5776 5772 5773 5777 5777 5773 5775 5775 5781 5779 5780 5784 5786 5786 5782 5780 5780 5778 5775 5772 5769 5766 5764
5804 5793 5792 5793 5794 5795 5789 5789 5788 5786 5786 5783 5777 5776 5778 5775 5776 5774 5777 5781 5777 5780 5774 5774 5775 5776 5773 5780 5779 5784 5788 5786 5789 5792 5792 5791 5790 5786 5783 5780 5776 5773 5771
5803 5794 5791 5792 5792 5791 5791 5788 5792 5789 5789 5789 5787 5791 5790 5791 5791 5787 5790 5790 5787 5787 5780 5779 5777 5780 5776 5780 5778 5784 5792 5792 5792 5796 5794 5792 5793 5793 5788 5786 5781 5779 5778
5808 5793 5790 5787 5786 5787 5786 5786 5787 5787 5788 5792 5793 5795 5793 5792 5791 5789 5793 5793 5792 5790 5785 5784 5785 5781 5784 5784 5778 5784 5795 5800 5799 5798 5799 5797 5795 5795 5794 5792 5787 5785 5785
5811 5798 5790 5788 5785 5785 5789 5792 5792 5793 5796 5794 5795 5795 5795 5793 5791 5790 5793 5797 5798 5792 5789 5789 5785 5785 5791 5796 5787 5785 5784 5787 5804 5803 5802 5800 5800 5801 5800 5798 5794 5791 5791
5812 5800 5792 5789 5786 5786 5791 5791 5791 5792 5793 5794 5797 5799 5799 5796 5796 5795 5794 5795 5796 5791 5792 5792 5788 5786 5786 5795 5796 5786 5778 5773 5790 5808 5805 5809 5809 5808 5810 5805 5804 5798 5795
5813 5807 5797 5787 5787 5788 5790 5793 5790 5786 5779 5783 5790 5796 5798 5796 5797 5797 5798 5796 5792 5793 5794 5792 5793 5791 5787 5783 5793 5798 5793 5789 5779 5779 5798 5814 5801 5794 5798 5809 5814 5808 5803
5813 5807 5797 5790 5789 5789 5789 5788 5788 5782 5788 5789 5789 5786 5790 5793 5794 5794 5794 5795 5790 5790 5796 5793 5791 5789 5783 5780 5782 5783 5784 5783 5779 5778 5782 5798 5784 5769 5793 5804 5812 5814 5809
5811 5805 5799 5789 5785 5786 5785 5784 5779 5777 5779 5780 5781 5779 5786 5793 5794 5794 5793 5791 5792 5793 5790 5789 5788 5787 5785 5783 5780 5778 5775 5771 5773 5770 5771 5782 5790 5789 5796 5788 5813 5817 5813